Home > Weather > Stanley > Past weeks

Flag for Falkland Islands Past Weather in Stanley, Falkland Islands — Yesterday and Last 2 Weeks

Now
48 °F

Clear.


Feels Like: 42 °F
Forecast: 44 / 48 °F
Wind: 15 mph from Northwest

Location: Mount Pleasant Airport

Current Time: Jun 27, 2016 at 2:51:56 AM

Latest Report: Jun 27, 2016 at 1:50 AM


Visibility: 10 mi

Pressure: 29.92 "Hg

Humidity: 66%

Dew Point: 37 °F

Location of StanleyLocation

Past Weather in Stanley — Graph

°F

Stanley Temperature Yesterday

Maximum temperature yesterday: 54 °F (at 10:50 AM)
Minimum temperature yesterday: 41 °F (at 8:50 PM)
Average temperature yesterday: 50 °F

High & Low Weather Summary for the Past Weeks

 TemperatureHumidityPressure
High54 °F (Jun 26, 10:50 AM)100% (Jun 16, 10:50 PM)30.18 "Hg (Jun 16, 10:50 PM)
Low32 °F (Jun 22, 7:50 AM)40% (Jun 15, 8:50 AM)29.30 "Hg (Jun 13, 3:50 AM)
Average41 °F82%29.87 "Hg
* Reported Jun 12 12:50 AM — Jun 27 12:50 AM, Stanley, Weather by CustomWeather, © 2016

Note: Actual official high and low records may vary slightly from our data, if they occured in-between our weather recording intervals... More about our weather records

Advertising

Stanley Weather History for the Previous 24 Hours

Scroll right to see more
 ConditionsComfort  
Time TempWeatherWind HumidityBarometerVisibility
12:50 AM
Mon, Jun 27
54 °FClear.13 mph54%29.89 "Hg10 mi
11:50 PM
Sun, Jun 26
54 °FClear.13 mph54%29.89 "Hg10 mi
10:50 PM52 °FClear.14 mph58%29.92 "Hg10 mi
9:50 PM50 °FClear.8 mph67%29.92 "Hg10 mi
8:50 PM41 °FClear.6 mph93%29.92 "Hg10 mi
7:50 PM43 °FClear.3 mph87%29.95 "Hg10 mi
6:50 PM50 °FClear.3 mph67%29.95 "Hg10 mi
5:50 PM54 °FPassing clouds.16 mph58%29.92 "HgN/A
4:50 PM54 °FPassing clouds.17 mph63%29.92 "HgN/A
3:50 PM54 °FBroken clouds.16 mph63%29.92 "HgN/A
2:50 PM54 °FScattered clouds.15 mph67%29.92 "HgN/A
1:50 PM54 °FScattered clouds.17 mph67%29.92 "HgN/A
12:50 PM54 °FScattered clouds.18 mph67%29.92 "HgN/A
11:50 AM54 °FPassing clouds.22 mph63%29.92 "HgN/A
10:50 AM54 °FPassing clouds.22 mph58%29.92 "HgN/A
9:50 AM52 °FPassing clouds.26 mph62%29.89 "HgN/A
8:50 AM52 °FPassing clouds.26 mph62%29.89 "HgN/A
7:50 AM52 °FPassing clouds.30 mph54%29.86 "HgN/A
6:50 AM46 °FPassing clouds.21 mph76%29.89 "HgN/A
5:50 AM46 °FPassing clouds.23 mph71%29.89 "HgN/A
4:50 AM46 °FPassing clouds.13 mph76%29.89 "HgN/A
3:50 AM50 °FPassing clouds.16 mph58%29.92 "HgN/A
2:50 AM52 °FClear.18 mph54%29.92 "Hg10 mi
Weather by CustomWeather, © 2016

See weather overviewHow to use our weather pages